This is the latest recevied weather packets stored in our database for station/object MM1PTT-13. If no packets are shown the sender has not sent any weather packets the latest 10 day(s).
| Time | Temp. | Humidity | Pressure | Rain* | Wind** | Luminosity | Snow |
|---|---|---|---|---|---|---|---|
| 1777749343 | 13.33° C | 86% | 983.7 hPa | 0 mm | - | 51 W/m² | - |
| 1777749043 | 13.33° C | 85% | 983.7 hPa | 0 mm | - | 55 W/m² | - |
| 1777748143 | 13.33° C | 84% | 983.7 hPa | 0 mm | - | 36 W/m² | - |
| 1777747842 | 13.33° C | 86% | 983.4 hPa | 0 mm | - | 67 W/m² | - |
| 1777747543 | 13.33° C | 86% | 983.7 hPa | 0 mm | - | 66 W/m² | - |
| 1777746943 | 12.78° C | 85% | 983.4 hPa | 0 mm | - | 67 W/m² | - |
| 1777746642 | 12.78° C | 87% | 983.4 hPa | 0 mm | - | 69 W/m² | - |
| 1777746344 | 13.33° C | 88% | 983.4 hPa | 0 mm | - | 77 W/m² | - |
| 1777745144 | 12.78° C | 87% | 983.7 hPa | 0 mm | - | 75 W/m² | - |
| 1777744542 | 13.33° C | 87% | 983.4 hPa | 0 mm | - | 55 W/m² | - |
| 1777744243 | 13.33° C | 86% | 983.4 hPa | 0 mm | - | 57 W/m² | - |
| 1777743643 | 13.33° C | 84% | 983.7 hPa | 0 mm | - | 56 W/m² | - |
| 1777743342 | 13.33° C | 83% | 983.7 hPa | 0 mm | - | 37 W/m² | - |
| 1777743042 | 13.33° C | 82% | 983.4 hPa | 0 mm | - | 37 W/m² | - |
| 1777742744 | 13.89° C | 81% | 983.7 hPa | 0 mm | - | 42 W/m² | - |
| 1777742442 | 13.89° C | 75% | 983.7 hPa | 0 mm | - | 37 W/m² | - |
| 1777740943 | 15° C | 70% | 983.7 hPa | 0 mm | - | 122 W/m² | - |
| 1777740343 | 15° C | 74% | 983.7 hPa | 0 mm | - | 182 W/m² | - |
| 1777740042 | 14.44° C | 76% | 983.7 hPa | 0 mm | - | 184 W/m² | - |
| 1777739742 | 14.44° C | 77% | 983.7 hPa | 0 mm | - | 96 W/m² | - |
| 1777739443 | 14.44° C | 78% | 983.7 hPa | 0 mm | - | 93 W/m² | - |
| 1777739142 | 14.44° C | 75% | 983.7 hPa | 0 mm | - | 65 W/m² | - |
| 1777738842 | 14.44° C | 75% | 983.7 hPa | 0 mm | - | 68 W/m² | - |
| 1777738543 | 14.44° C | 74% | 983.7 hPa | 0 mm | - | 82 W/m² | - |
| 1777737942 | 15° C | 72% | 983.7 hPa | 0 mm | - | 158 W/m² | - |
* Rain latest hour (hover to see other rain measurements)
** Current wind speed in m/s (hover to see current wind gust speed)